ASTRA 1M

Last updated on Oct. 23, 2020, 5:56 a.m. UTC

1 33436U 08057A   20296.80188072  .00000105  00000-0  00000-0 0  9998
2 33436   0.0371 111.3265 0004363  65.0977 163.1648  1.00268898 25043
UTC
Height (km)
Latitude
Longitude
Inclination
Orbital Period
UTC large
Height (km)
Speed (km/s)
/
Latitude / Longitude
Inclination (degrees)
Orbital Period (minutes)
Azimuth
Elevation
Range (km)
Doppler Factor
iOS Compass Heading
iOS Angle

Next 30 passes for location: Hong Kong

Rise time Rise Azimuth (degrees) Set time Set Azimuth (degrees) Duration Max altitude (degrees)

No matching passes for this satellites